Location: Newark
(0.5300°S, 127.4800°E)
Time: 18:58:11
(UTC+00:00)

Vanguard 3 - Pass Details

Date: 24 September 2019
Orbit: 508 x 3262 km, 33.3° (Epoch: 23 October)

Event Time Altitude Azimuth Distance (km) Brightness Sun altitude
Rises 04:38:38 0° 316° (NW) 7,215 12.2 70.9°
Reaches altitude 10° 04:44:06 10° 322° (NW) 6,174 12.0 69.6°
Maximum altitude 05:01:52 44° 28° (NNE) 3,398 10.8 65.1°
Drops below altitude 10° 05:14:01 10° 96° (E) 4,365 10.7 62.1°
Sets 05:17:04 0° 103° (ESE) 5,028 10.9 61.3°
